Time,TemperatureF,DewpointF,PressureIn,WindDirection,WindDirectionDegrees,WindSpeedMPH,WindSpeedGustMPH,Humidity,HourlyPrecipIn,Conditions,Clouds,dailyrainin,SoftwareType,DateUTC
2013-01-24 00:01:00,49.1,46.6,29.72,North,0,0.0,0.0,91,0.00,,,0.00,WUHU216HW,2013-01-24 08:01:00,
2013-01-24 00:06:00,49.3,46.8,29.72,North,0,0.0,0.0,91,0.00,,,0.00,WUHU216HW,2013-01-24 08:06:00,
2013-01-24 00:11:00,49.1,46.6,29.72,North,0,0.0,0.0,91,0.00,,,0.00,WUHU216HW,2013-01-24 08:11:00,
2013-01-24 00:16:00,49.1,46.6,29.72,North,0,0.0,0.0,91,0.00,,,0.00,WUHU216HW,2013-01-24 08:16:00,
2013-01-24 00:21:00,49.0,46.4,29.72,North,0,0.0,0.0,91,0.00,,,0.00,WUHU216HW,2013-01-24 08:21:00,
2013-01-24 00:26:00,49.0,46.4,29.72,North,0,0.0,0.0,91,0.00,,,0.00,WUHU216HW,2013-01-24 08:26:00,
2013-01-24 00:31:00,49.0,46.4,29.72,North,0,0.0,0.0,91,0.00,,,0.00,WUHU216HW,2013-01-24 08:31:00,
2013-01-24 00:36:00,49.0,46.4,29.72,North,0,0.0,0.0,91,0.00,,,0.00,WUHU216HW,2013-01-24 08:36:00,
2013-01-24 00:41:00,49.0,46.4,29.72,North,0,0.0,0.0,91,0.00,,,0.00,WUHU216HW,2013-01-24 08:41:00,
2013-01-24 00:47:00,49.0,46.4,29.71,North,0,0.0,0.0,91,0.00,,,0.00,WUHU216HW,2013-01-24 08:47:00,
2013-01-24 00:52:00,49.0,46.4,29.71,North,0,0.0,0.0,91,0.00,,,0.00,WUHU216HW,2013-01-24 08:52:00,
2013-01-24 00:57:00,49.0,46.4,29.71,North,0,0.0,0.0,91,0.00,,,0.00,WUHU216HW,2013-01-24 08:57:00,
2013-01-24 01:02:00,49.0,46.4,29.71,North,0,0.0,0.0,91,0.00,,,0.00,WUHU216HW,2013-01-24 09:02:00,
2013-01-24 01:07:00,49.0,46.4,29.72,North,0,0.0,0.0,91,0.00,,,0.00,WUHU216HW,2013-01-24 09:07:00,
2013-01-24 01:12:00,49.0,46.4,29.71,North,0,0.0,0.0,91,0.00,,,0.00,WUHU216HW,2013-01-24 09:12:00,
2013-01-24 01:17:00,49.0,46.4,29.71,North,0,0.0,0.0,91,0.00,,,0.00,WUHU216HW,2013-01-24 09:17:00,
2013-01-24 01:22:00,49.1,46.6,29.71,North,0,0.0,0.0,91,0.00,,,0.00,WUHU216HW,2013-01-24 09:22:00,
2013-01-24 01:27:00,49.1,46.6,29.71,North,0,0.0,0.0,91,0.00,,,0.00,WUHU216HW,2013-01-24 09:27:00,
2013-01-24 01:32:00,49.1,46.6,29.71,North,0,0.0,0.0,91,0.00,,,0.00,WUHU216HW,2013-01-24 09:32:00,
2013-01-24 01:37:00,49.0,46.4,29.71,North,0,0.0,0.0,91,0.00,,,0.00,WUHU216HW,2013-01-24 09:37:00,
2013-01-24 01:42:00,49.0,46.4,29.71,North,0,0.0,0.0,91,0.00,,,0.00,WUHU216HW,2013-01-24 09:42:00,
2013-01-24 01:48:00,49.0,46.4,29.70,North,0,0.0,0.0,91,0.00,,,0.00,WUHU216HW,2013-01-24 09:48:00,
2013-01-24 01:53:00,49.0,46.4,29.70,North,0,0.0,0.0,91,0.00,,,0.00,WUHU216HW,2013-01-24 09:53:00,
2013-01-24 01:58:00,49.0,46.4,29.70,North,0,0.0,0.0,91,0.00,,,0.00,WUHU216HW,2013-01-24 09:58:00,
2013-01-24 02:03:00,49.0,46.4,29.70,North,0,0.0,0.0,91,0.00,,,0.00,WUHU216HW,2013-01-24 10:03:00,
2013-01-24 02:08:00,48.8,46.3,29.70,North,0,0.0,0.0,91,0.00,,,0.00,WUHU216HW,2013-01-24 10:08:00,
2013-01-24 02:13:00,49.0,46.4,29.70,North,0,0.0,0.0,91,0.00,,,0.00,WUHU216HW,2013-01-24 10:13:00,
2013-01-24 02:18:00,49.0,46.4,29.70,North,0,0.0,0.0,91,0.00,,,0.00,WUHU216HW,2013-01-24 10:18:00,
2013-01-24 02:23:00,48.8,46.3,29.71,North,0,0.0,0.0,91,0.00,,,0.00,WUHU216HW,2013-01-24 10:23:00,
2013-01-24 02:28:00,49.0,46.4,29.71,North,0,0.0,0.0,91,0.00,,,0.00,WUHU216HW,2013-01-24 10:28:00,
2013-01-24 02:33:00,49.0,46.7,29.72,North,0,0.0,0.0,92,0.00,,,0.00,WUHU216HW,2013-01-24 10:33:00,
2013-01-24 02:38:00,49.1,46.6,29.72,North,0,0.0,0.0,91,0.00,,,0.00,WUHU216HW,2013-01-24 10:38:00,
2013-01-24 02:43:00,49.1,46.6,29.71,North,0,0.0,0.0,91,0.00,,,0.00,WUHU216HW,2013-01-24 10:43:00,
2013-01-24 02:48:00,49.0,46.4,29.71,North,0,0.0,0.0,91,0.00,,,0.00,WUHU216HW,2013-01-24 10:48:00,
2013-01-24 02:53:00,49.0,46.4,29.71,North,0,0.0,0.0,91,0.00,,,0.00,WUHU216HW,2013-01-24 10:53:00,
2013-01-24 02:58:00,49.0,46.4,29.71,North,0,0.0,0.0,91,0.00,,,0.00,WUHU216HW,2013-01-24 10:58:00,
2013-01-24 03:03:00,49.0,46.4,29.71,North,0,0.0,0.0,91,0.00,,,0.00,WUHU216HW,2013-01-24 11:03:00,
2013-01-24 03:08:00,49.0,46.4,29.71,North,0,0.0,0.0,91,0.00,,,0.00,WUHU216HW,2013-01-24 11:08:00,
2013-01-24 03:14:00,49.0,46.4,29.70,North,0,0.0,0.0,91,0.00,,,0.00,WUHU216HW,2013-01-24 11:14:00,
2013-01-24 03:19:00,49.0,46.4,29.71,North,0,0.0,0.0,91,0.00,,,0.00,WUHU216HW,2013-01-24 11:19:00,
2013-01-24 03:24:00,49.0,46.4,29.71,North,0,0.0,0.0,91,0.00,,,0.00,WUHU216HW,2013-01-24 11:24:00,
2013-01-24 03:29:00,49.0,46.4,29.71,North,0,0.0,0.0,91,0.00,,,0.00,WUHU216HW,2013-01-24 11:29:00,
2013-01-24 03:34:00,49.0,46.4,29.71,North,0,0.0,0.0,91,0.00,,,0.00,WUHU216HW,2013-01-24 11:34:00,
2013-01-24 03:39:00,49.0,46.4,29.70,North,0,0.0,0.0,91,0.00,,,0.00,WUHU216HW,2013-01-24 11:39:00,
2013-01-24 03:44:00,49.0,46.4,29.70,North,0,0.0,0.0,91,0.00,,,0.00,WUHU216HW,2013-01-24 11:44:00,
2013-01-24 03:49:00,49.1,46.6,29.70,North,0,0.0,0.0,91,0.00,,,0.00,WUHU216HW,2013-01-24 11:49:00,
2013-01-24 03:54:00,49.3,46.8,29.70,North,0,0.0,0.0,91,0.00,,,0.00,WUHU216HW,2013-01-24 11:54:00,
2013-01-24 03:59:00,49.3,46.8,29.70,North,0,0.0,0.0,91,0.00,,,0.00,WUHU216HW,2013-01-24 11:59:00,
2013-01-24 04:04:00,49.1,46.6,29.70,North,0,0.0,0.0,91,0.00,,,0.00,WUHU216HW,2013-01-24 12:04:00,
2013-01-24 04:09:00,49.0,46.4,29.70,North,0,0.0,0.0,91,0.00,,,0.00,WUHU216HW,2013-01-24 12:09:00,
2013-01-24 04:14:00,49.0,46.4,29.70,North,0,0.0,0.0,91,0.00,,,0.00,WUHU216HW,2013-01-24 12:14:00,
2013-01-24 04:20:00,49.0,46.4,29.70,North,0,0.0,0.0,91,0.00,,,0.00,WUHU216HW,2013-01-24 12:20:00,
2013-01-24 04:25:00,49.0,46.4,29.71,North,0,0.0,0.0,91,0.00,,,0.00,WUHU216HW,2013-01-24 12:25:00,
2013-01-24 04:30:00,49.0,46.4,29.71,North,0,0.0,0.0,91,0.00,,,0.00,WUHU216HW,2013-01-24 12:30:00,
2013-01-24 04:35:00,49.0,46.4,29.71,North,0,0.0,0.0,91,0.00,,,0.00,WUHU216HW,2013-01-24 12:35:00,
2013-01-24 04:40:00,49.0,46.4,29.71,North,0,0.0,0.0,91,0.00,,,0.00,WUHU216HW,2013-01-24 12:40:00,
2013-01-24 04:45:00,49.0,46.4,29.71,North,0,0.0,0.0,91,0.00,,,0.00,WUHU216HW,2013-01-24 12:45:00,
2013-01-24 04:50:00,49.0,46.4,29.71,North,0,0.0,0.0,91,0.00,,,0.00,WUHU216HW,2013-01-24 12:50:00,
2013-01-24 04:55:00,49.0,46.4,29.72,North,0,0.0,0.0,91,0.00,,,0.00,WUHU216HW,2013-01-24 12:55:00,
2013-01-24 05:00:00,49.0,46.4,29.72,North,0,0.0,0.0,91,0.00,,,0.00,WUHU216HW,2013-01-24 13:00:00,
2013-01-24 05:05:00,49.1,46.6,29.72,North,0,0.0,0.0,91,0.00,,,0.00,WUHU216HW,2013-01-24 13:05:00,
2013-01-24 05:10:00,49.3,46.8,29.72,North,0,0.0,0.0,91,0.00,,,0.00,WUHU216HW,2013-01-24 13:10:00,
2013-01-24 05:15:00,49.1,46.6,29.72,North,0,0.0,0.0,91,0.00,,,0.00,WUHU216HW,2013-01-24 13:15:00,
2013-01-24 05:20:00,49.1,46.6,29.72,North,0,0.0,0.0,91,0.00,,,0.00,WUHU216HW,2013-01-24 13:20:00,
2013-01-24 05:26:00,49.1,46.6,29.72,North,0,0.0,0.0,91,0.00,,,0.00,WUHU216HW,2013-01-24 13:26:00,
2013-01-24 05:31:00,49.1,46.6,29.72,North,0,0.0,0.0,91,0.00,,,0.00,WUHU216HW,2013-01-24 13:31:00,
2013-01-24 05:36:00,49.0,46.4,29.72,North,0,0.0,0.0,91,0.00,,,0.00,WUHU216HW,2013-01-24 13:36:00,
2013-01-24 05:41:00,49.0,46.4,29.72,North,0,0.0,0.0,91,0.00,,,0.00,WUHU216HW,2013-01-24 13:41:00,
2013-01-24 05:46:00,49.1,46.6,29.72,North,0,0.0,0.0,91,0.00,,,0.00,WUHU216HW,2013-01-24 13:46:00,
2013-01-24 05:51:00,49.1,46.6,29.72,North,0,0.0,0.0,91,0.00,,,0.00,WUHU216HW,2013-01-24 13:51:00,
2013-01-24 05:56:00,49.0,46.4,29.72,North,0,0.0,0.0,91,0.00,,,0.00,WUHU216HW,2013-01-24 13:56:00,
2013-01-24 06:01:00,49.1,46.6,29.72,North,0,0.0,0.0,91,0.00,,,0.00,WUHU216HW,2013-01-24 14:01:00,
2013-01-24 06:06:00,49.1,46.6,29.72,North,0,0.0,0.0,91,0.00,,,0.00,WUHU216HW,2013-01-24 14:06:00,
2013-01-24 06:11:00,49.1,46.6,29.72,North,0,0.0,0.0,91,0.00,,,0.00,WUHU216HW,2013-01-24 14:11:00,
2013-01-24 06:16:00,49.3,46.8,29.72,North,0,0.0,0.0,91,0.00,,,0.00,WUHU216HW,2013-01-24 14:16:00,
2013-01-24 06:21:00,49.3,46.8,29.72,North,0,0.0,0.0,91,0.00,,,0.00,WUHU216HW,2013-01-24 14:21:00,
2013-01-24 06:27:00,49.5,47.0,29.72,North,0,0.0,0.0,91,0.00,,,0.00,WUHU216HW,2013-01-24 14:27:00,
2013-01-24 06:32:00,49.3,46.8,29.73,North,0,0.0,0.0,91,0.00,,,0.00,WUHU216HW,2013-01-24 14:32:00,
2013-01-24 06:37:00,49.3,46.8,29.73,North,0,0.0,0.0,91,0.00,,,0.00,WUHU216HW,2013-01-24 14:37:00,
2013-01-24 06:42:00,49.3,46.8,29.73,North,0,0.0,0.0,91,0.00,,,0.00,WUHU216HW,2013-01-24 14:42:00,
2013-01-24 06:47:00,49.3,46.8,29.73,North,0,0.0,0.0,91,0.00,,,0.00,WUHU216HW,2013-01-24 14:47:00,
2013-01-24 06:52:00,49.3,46.8,29.73,North,0,0.0,0.0,91,0.00,,,0.00,WUHU216HW,2013-01-24 14:52:00,
2013-01-24 06:57:00,49.3,46.8,29.74,North,0,0.0,0.0,91,0.00,,,0.00,WUHU216HW,2013-01-24 14:57:00,
2013-01-24 07:02:00,49.3,46.8,29.74,North,0,0.0,0.0,91,0.00,,,0.00,WUHU216HW,2013-01-24 15:02:00,
2013-01-24 07:07:00,49.3,46.8,29.74,North,0,0.0,0.0,91,0.00,,,0.00,WUHU216HW,2013-01-24 15:07:00,
2013-01-24 07:12:00,49.3,46.8,29.74,North,0,0.0,0.0,91,0.00,,,0.00,WUHU216HW,2013-01-24 15:12:00,
2013-01-24 07:18:00,49.3,46.8,29.74,North,0,0.0,0.0,91,0.00,,,0.00,WUHU216HW,2013-01-24 15:18:00,
2013-01-24 07:23:00,49.3,46.8,29.73,North,0,0.0,0.0,91,0.00,,,0.00,WUHU216HW,2013-01-24 15:23:00,
2013-01-24 07:28:00,49.5,47.0,29.73,North,0,0.0,0.0,91,0.00,,,0.00,WUHU216HW,2013-01-24 15:28:00,
2013-01-24 07:33:00,49.7,47.4,29.74,North,0,0.0,0.0,92,0.00,,,0.00,WUHU216HW,2013-01-24 15:33:00,
2013-01-24 07:38:00,49.9,47.6,29.74,North,0,0.0,0.0,92,0.00,,,0.00,WUHU216HW,2013-01-24 15:38:00,
2013-01-24 07:43:00,49.9,47.3,29.74,North,0,0.0,0.0,91,0.00,,,0.00,WUHU216HW,2013-01-24 15:43:00,
2013-01-24 07:48:00,49.9,47.3,29.74,North,0,0.0,0.0,91,0.00,,,0.00,WUHU216HW,2013-01-24 15:48:00,
2013-01-24 07:53:00,49.9,47.3,29.74,North,0,0.0,0.0,91,0.00,,,0.00,WUHU216HW,2013-01-24 15:53:00,
2013-01-24 07:58:00,49.9,47.3,29.74,North,0,0.0,0.0,91,0.00,,,0.00,WUHU216HW,2013-01-24 15:58:00,
2013-01-24 08:03:00,49.9,47.3,29.74,North,0,0.0,0.0,91,0.00,,,0.00,WUHU216HW,2013-01-24 16:03:00,
2013-01-24 08:08:00,49.9,47.3,29.74,North,0,0.0,0.0,91,0.00,,,0.00,WUHU216HW,2013-01-24 16:08:00,
2013-01-24 08:13:00,49.9,47.3,29.74,North,0,0.0,0.0,91,0.00,,,0.00,WUHU216HW,2013-01-24 16:13:00,
2013-01-24 08:19:00,49.9,47.3,29.74,North,0,0.0,0.0,91,0.00,,,0.00,WUHU216HW,2013-01-24 16:19:00,
2013-01-24 08:24:00,49.9,47.3,29.74,North,0,0.0,0.0,91,0.00,,,0.00,WUHU216HW,2013-01-24 16:24:00,
2013-01-24 08:29:00,50.0,47.4,29.74,North,0,0.0,0.0,91,0.00,,,0.00,WUHU216HW,2013-01-24 16:29:00,
2013-01-24 08:34:00,49.9,47.3,29.74,North,0,0.0,0.0,91,0.00,,,0.00,WUHU216HW,2013-01-24 16:34:00,
2013-01-24 08:39:00,50.0,47.4,29.74,North,0,0.0,0.0,91,0.00,,,0.00,WUHU216HW,2013-01-24 16:39:00,
2013-01-24 08:44:00,50.0,47.4,29.74,North,0,0.0,0.0,91,0.00,,,0.00,WUHU216HW,2013-01-24 16:44:00,
2013-01-24 08:49:00,50.2,47.6,29.74,North,0,0.0,0.0,91,0.00,,,0.00,WUHU216HW,2013-01-24 16:49:00,
2013-01-24 08:54:00,50.4,47.8,29.74,North,0,0.0,0.0,91,0.00,,,0.00,WUHU216HW,2013-01-24 16:54:00,
2013-01-24 08:59:00,50.4,47.8,29.75,North,0,0.0,0.0,91,0.00,,,0.00,WUHU216HW,2013-01-24 16:59:00,
2013-01-24 09:04:00,50.6,48.0,29.75,North,0,0.0,0.0,91,0.00,,,0.00,WUHU216HW,2013-01-24 17:04:00,
2013-01-24 09:09:00,50.6,48.0,29.75,North,0,0.0,0.0,91,0.00,,,0.00,WUHU216HW,2013-01-24 17:09:00,
2013-01-24 09:14:00,50.6,48.0,29.76,North,0,0.0,0.0,91,0.00,,,0.00,WUHU216HW,2013-01-24 17:14:00,
2013-01-24 09:19:00,50.6,48.0,29.76,North,0,0.0,0.0,91,0.00,,,0.00,WUHU216HW,2013-01-24 17:19:00,
2013-01-24 09:25:00,50.8,48.2,29.77,North,0,0.0,0.0,91,0.00,,,0.00,WUHU216HW,2013-01-24 17:25:00,
2013-01-24 09:30:00,50.8,48.2,29.77,North,0,0.0,0.0,91,0.00,,,0.00,WUHU216HW,2013-01-24 17:30:00,
2013-01-24 09:35:00,50.8,48.2,29.77,North,0,0.0,0.0,91,0.00,,,0.00,WUHU216HW,2013-01-24 17:35:00,
2013-01-24 09:40:00,50.9,48.3,29.77,North,0,0.0,0.0,91,0.00,,,0.00,WUHU216HW,2013-01-24 17:40:00,
2013-01-24 09:45:00,51.1,48.5,29.78,North,0,0.0,0.0,91,0.00,,,0.00,WUHU216HW,2013-01-24 17:45:00,
2013-01-24 09:50:00,51.3,48.7,29.78,North,0,0.0,0.0,91,0.00,,,0.00,WUHU216HW,2013-01-24 17:50:00,
2013-01-24 09:55:00,51.5,48.9,29.78,North,0,0.0,0.0,91,0.00,,,0.00,WUHU216HW,2013-01-24 17:55:00,
2013-01-24 10:00:00,51.5,48.9,29.79,North,0,0.0,0.0,91,0.00,,,0.00,WUHU216HW,2013-01-24 18:00:00,
2013-01-24 10:05:00,51.8,49.5,29.79,North,0,0.0,0.0,92,0.00,,,0.00,WUHU216HW,2013-01-24 18:05:00,
2013-01-24 10:10:00,52.0,49.4,29.79,North,0,0.0,0.0,91,0.00,,,0.00,WUHU216HW,2013-01-24 18:10:00,
2013-01-24 10:15:00,52.0,49.4,29.79,North,0,0.0,0.0,91,0.00,,,0.00,WUHU216HW,2013-01-24 18:15:00,
2013-01-24 10:20:00,52.0,49.4,29.79,North,0,0.0,0.0,91,0.00,,,0.00,WUHU216HW,2013-01-24 18:20:00,
2013-01-24 10:26:00,52.0,49.1,29.79,North,0,0.0,0.0,90,0.00,,,0.00,WUHU216HW,2013-01-24 18:26:00,
2013-01-24 10:31:00,52.2,49.3,29.80,North,0,0.0,0.0,90,0.00,,,0.00,WUHU216HW,2013-01-24 18:31:00,
2013-01-24 10:36:00,52.2,49.3,29.79,North,0,0.0,0.0,90,0.00,,,0.00,WUHU216HW,2013-01-24 18:36:00,
2013-01-24 10:41:00,52.4,49.5,29.79,North,0,0.0,0.0,90,0.00,,,0.00,WUHU216HW,2013-01-24 18:41:00,
2013-01-24 10:46:00,52.6,49.7,29.80,North,0,0.0,0.0,90,0.00,,,0.00,WUHU216HW,2013-01-24 18:46:00,
2013-01-24 10:51:00,52.7,49.9,29.80,North,0,0.0,0.0,90,0.00,,,0.00,WUHU216HW,2013-01-24 18:51:00,
2013-01-24 10:56:00,52.9,50.0,29.80,North,0,0.0,0.0,90,0.00,,,0.00,WUHU216HW,2013-01-24 18:56:00,
2013-01-24 11:01:00,53.3,50.4,29.80,North,0,0.0,0.0,90,0.00,,,0.00,WUHU216HW,2013-01-24 19:01:00,
2013-01-24 11:06:00,53.6,50.8,29.79,North,0,0.0,0.0,90,0.00,,,0.00,WUHU216HW,2013-01-24 19:06:00,
2013-01-24 11:11:00,53.6,50.5,29.79,North,0,0.0,0.0,89,0.00,,,0.00,WUHU216HW,2013-01-24 19:11:00,
2013-01-24 11:16:00,54.0,50.9,29.79,North,0,0.0,0.0,89,0.00,,,0.00,WUHU216HW,2013-01-24 19:16:00,
2013-01-24 11:22:00,54.4,51.2,29.79,North,0,0.0,0.0,89,0.00,,,0.00,WUHU216HW,2013-01-24 19:22:00,
2013-01-24 11:27:00,54.7,51.5,29.79,North,0,0.0,0.0,89,0.00,,,0.00,WUHU216HW,2013-01-24 19:27:00,
2013-01-24 11:32:00,55.1,51.8,29.79,North,0,0.0,0.0,89,0.00,,,0.00,WUHU216HW,2013-01-24 19:32:00,
2013-01-24 11:37:00,55.4,52.2,29.79,North,0,0.0,0.0,89,0.00,,,0.00,WUHU216HW,2013-01-24 19:37:00,
2013-01-24 11:42:00,55.6,52.1,29.79,North,0,0.0,0.0,88,0.00,,,0.00,WUHU216HW,2013-01-24 19:42:00,
2013-01-24 11:47:00,55.8,52.3,29.79,North,0,0.0,0.0,88,0.00,,,0.00,WUHU216HW,2013-01-24 19:47:00,
2013-01-24 11:52:00,56.2,52.3,29.79,North,0,0.0,0.0,87,0.00,,,0.00,WUHU216HW,2013-01-24 19:52:00,
2013-01-24 11:57:00,56.3,52.5,29.79,North,0,0.0,0.0,87,0.00,,,0.00,WUHU216HW,2013-01-24 19:57:00,
2013-01-24 12:02:00,56.5,52.7,29.79,North,0,0.0,0.0,87,0.00,,,0.00,WUHU216HW,2013-01-24 20:02:00,
2013-01-24 12:07:00,56.7,52.6,29.78,North,0,0.0,0.0,86,0.00,,,0.00,WUHU216HW,2013-01-24 20:07:00,
2013-01-24 12:12:00,56.7,52.6,29.78,North,0,0.0,0.0,86,0.00,,,0.00,WUHU216HW,2013-01-24 20:12:00,
2013-01-24 12:18:00,56.7,52.6,29.78,North,0,0.0,0.0,86,0.00,,,0.00,WUHU216HW,2013-01-24 20:18:00,
2013-01-24 12:23:00,56.9,52.8,29.78,North,0,0.0,0.0,86,0.00,,,0.00,WUHU216HW,2013-01-24 20:23:00,
2013-01-24 12:28:00,56.9,52.8,29.78,North,0,0.0,0.0,86,0.00,,,0.00,WUHU216HW,2013-01-24 20:28:00,
2013-01-24 12:33:00,57.1,52.9,29.78,North,0,0.0,0.0,86,0.00,,,0.00,WUHU216HW,2013-01-24 20:33:00,
2013-01-24 12:38:00,57.1,52.9,29.78,North,0,0.0,0.0,86,0.00,,,0.00,WUHU216HW,2013-01-24 20:38:00,
2013-01-24 12:43:00,57.1,52.6,29.78,North,0,0.0,0.0,85,0.00,,,0.00,WUHU216HW,2013-01-24 20:43:00,
2013-01-24 12:48:00,56.9,52.4,29.77,North,0,0.0,0.0,85,0.00,,,0.00,WUHU216HW,2013-01-24 20:48:00,
2013-01-24 12:53:00,56.7,52.2,29.77,North,0,0.0,0.0,85,0.00,,,0.00,WUHU216HW,2013-01-24 20:53:00,
2013-01-24 12:58:00,56.5,52.0,29.77,North,0,0.0,0.0,85,0.00,,,0.00,WUHU216HW,2013-01-24 20:58:00,
2013-01-24 13:03:00,56.5,52.0,29.77,North,0,0.0,0.0,85,0.00,,,0.00,WUHU216HW,2013-01-24 21:03:00,
2013-01-24 13:08:00,56.3,51.8,29.77,North,0,0.0,0.0,85,0.00,,,0.00,WUHU216HW,2013-01-24 21:08:00,
2013-01-24 13:13:00,56.3,51.8,29.77,North,0,0.0,0.0,85,0.00,,,0.00,WUHU216HW,2013-01-24 21:13:00,
2013-01-24 13:18:00,56.2,51.7,29.77,North,0,0.0,0.0,85,0.00,,,0.00,WUHU216HW,2013-01-24 21:18:00,
2013-01-24 13:23:00,56.2,52.0,29.77,North,0,0.0,0.0,86,0.00,,,0.00,WUHU216HW,2013-01-24 21:23:00,
2013-01-24 13:29:00,56.0,51.9,29.76,North,0,0.0,0.0,86,0.00,,,0.00,WUHU216HW,2013-01-24 21:29:00,
2013-01-24 13:34:00,55.8,51.7,29.76,North,0,0.0,0.0,86,0.00,,,0.00,WUHU216HW,2013-01-24 21:34:00,
2013-01-24 13:39:00,55.8,51.7,29.77,North,0,0.0,0.0,86,0.00,,,0.00,WUHU216HW,2013-01-24 21:39:00,
2013-01-24 13:44:00,55.6,51.5,29.77,North,0,0.0,0.0,86,0.00,,,0.00,WUHU216HW,2013-01-24 21:44:00,
2013-01-24 13:49:00,55.6,51.5,29.77,North,0,0.0,0.0,86,0.00,,,0.00,WUHU216HW,2013-01-24 21:49:00,
2013-01-24 13:54:00,55.6,51.8,29.77,North,0,0.0,0.0,87,0.00,,,0.00,WUHU216HW,2013-01-24 21:54:00,
2013-01-24 13:59:00,55.6,51.8,29.77,North,0,0.0,0.0,87,0.00,,,0.00,WUHU216HW,2013-01-24 21:59:00,
2013-01-24 14:04:00,55.6,51.8,29.77,North,0,0.0,0.0,87,0.00,,,0.00,WUHU216HW,2013-01-24 22:04:00,
2013-01-24 14:09:00,55.4,51.6,29.77,North,0,0.0,0.0,87,0.01,,,0.01,WUHU216HW,2013-01-24 22:09:00,
2013-01-24 14:14:00,55.4,51.6,29.77,North,0,0.0,0.0,87,0.01,,,0.01,WUHU216HW,2013-01-24 22:14:00,
2013-01-24 14:19:00,55.3,51.4,29.77,North,0,0.0,0.0,87,0.01,,,0.01,WUHU216HW,2013-01-24 22:19:00,
2013-01-24 14:24:00,55.1,51.6,29.76,North,0,0.0,0.0,88,0.01,,,0.01,WUHU216HW,2013-01-24 22:24:00,
2013-01-24 14:29:00,55.1,51.6,29.76,North,0,0.0,0.0,88,0.01,,,0.01,WUHU216HW,2013-01-24 22:29:00,
2013-01-24 14:34:00,55.1,51.6,29.76,North,0,0.0,0.0,88,0.01,,,0.01,WUHU216HW,2013-01-24 22:34:00,
2013-01-24 14:40:00,55.1,51.6,29.77,North,0,0.0,0.0,88,0.01,,,0.01,WUHU216HW,2013-01-24 22:40:00,
2013-01-24 14:45:00,55.1,51.6,29.76,North,0,0.0,0.0,88,0.01,,,0.01,WUHU216HW,2013-01-24 22:45:00,
2013-01-24 14:50:00,55.1,51.6,29.76,North,0,0.0,0.0,88,0.01,,,0.01,WUHU216HW,2013-01-24 22:50:00,
2013-01-24 14:55:00,54.9,51.4,29.77,North,0,0.0,0.0,88,0.01,,,0.01,WUHU216HW,2013-01-24 22:55:00,
2013-01-24 15:00:00,55.1,51.8,29.77,North,0,0.0,0.0,89,0.01,,,0.01,WUHU216HW,2013-01-24 23:00:00,
2013-01-24 15:05:00,55.1,51.8,29.77,North,0,0.0,0.0,89,0.00,,,0.01,WUHU216HW,2013-01-24 23:05:00,
2013-01-24 15:10:00,55.3,52.0,29.77,North,0,0.0,0.0,89,0.00,,,0.01,WUHU216HW,2013-01-24 23:10:00,
2013-01-24 15:15:00,55.3,52.0,29.77,North,0,0.0,0.0,89,0.00,,,0.01,WUHU216HW,2013-01-24 23:15:00,
2013-01-24 15:20:00,55.3,52.0,29.77,North,0,0.0,0.0,89,0.00,,,0.01,WUHU216HW,2013-01-24 23:20:00,
2013-01-24 15:25:00,55.1,51.8,29.77,North,0,0.0,0.0,89,0.00,,,0.01,WUHU216HW,2013-01-24 23:25:00,
2013-01-24 15:30:00,55.1,51.8,29.77,North,0,0.0,0.0,89,0.00,,,0.01,WUHU216HW,2013-01-24 23:30:00,
2013-01-24 15:35:00,55.1,51.8,29.77,North,0,0.0,0.0,89,0.00,,,0.01,WUHU216HW,2013-01-24 23:35:00,
2013-01-24 15:40:00,55.1,51.8,29.77,North,0,0.0,0.0,89,0.00,,,0.01,WUHU216HW,2013-01-24 23:40:00,
2013-01-24 15:46:00,55.1,51.8,29.77,North,0,0.0,0.0,89,0.00,,,0.01,WUHU216HW,2013-01-24 23:46:00,
2013-01-24 15:51:00,55.1,51.8,29.77,North,0,0.0,0.0,89,0.00,,,0.01,WUHU216HW,2013-01-24 23:51:00,
2013-01-24 15:56:00,55.1,51.8,29.77,North,0,0.0,0.0,89,0.00,,,0.01,WUHU216HW,2013-01-24 23:56:00,
2013-01-24 16:01:00,55.1,51.8,29.77,North,0,0.0,0.0,89,0.00,,,0.01,WUHU216HW,2013-01-25 00:01:00,
2013-01-24 16:06:00,54.9,51.7,29.77,North,0,0.0,0.0,89,0.00,,,0.01,WUHU216HW,2013-01-25 00:06:00,
2013-01-24 16:11:00,54.9,51.7,29.77,North,0,0.0,0.0,89,0.00,,,0.01,WUHU216HW,2013-01-25 00:11:00,
2013-01-24 16:16:00,54.9,51.7,29.77,North,0,0.0,0.0,89,0.00,,,0.01,WUHU216HW,2013-01-25 00:16:00,
2013-01-24 16:21:00,54.9,51.7,29.77,North,0,0.0,0.0,89,0.00,,,0.01,WUHU216HW,2013-01-25 00:21:00,
2013-01-24 16:26:00,55.1,51.8,29.77,North,0,0.0,0.0,89,0.00,,,0.01,WUHU216HW,2013-01-25 00:26:00,
2013-01-24 16:31:00,55.1,51.8,29.77,North,0,0.0,0.0,89,0.00,,,0.01,WUHU216HW,2013-01-25 00:31:00,
2013-01-24 16:36:00,54.9,51.7,29.77,North,0,0.0,0.0,89,0.00,,,0.01,WUHU216HW,2013-01-25 00:36:00,
2013-01-24 16:41:00,54.7,51.5,29.77,North,0,0.0,0.0,89,0.00,,,0.01,WUHU216HW,2013-01-25 00:41:00,
2013-01-24 16:46:00,54.5,51.3,29.77,North,0,0.0,0.0,89,0.00,,,0.01,WUHU216HW,2013-01-25 00:46:00,
2013-01-24 16:52:00,54.5,51.3,29.77,North,0,0.0,0.0,89,0.00,,,0.01,WUHU216HW,2013-01-25 00:52:00,
2013-01-24 16:57:00,54.4,51.2,29.77,North,0,0.0,0.0,89,0.00,,,0.01,WUHU216HW,2013-01-25 00:57:00,
2013-01-24 17:02:00,54.4,51.5,29.77,North,0,0.0,0.0,90,0.00,,,0.01,WUHU216HW,2013-01-25 01:02:00,
2013-01-24 17:07:00,54.2,51.3,29.77,North,0,0.0,0.0,90,0.00,,,0.01,WUHU216HW,2013-01-25 01:07:00,
2013-01-24 17:12:00,54.0,51.1,29.77,North,0,0.0,0.0,90,0.00,,,0.01,WUHU216HW,2013-01-25 01:12:00,
2013-01-24 17:17:00,54.0,51.1,29.77,North,0,0.0,0.0,90,0.00,,,0.01,WUHU216HW,2013-01-25 01:17:00,
2013-01-24 17:22:00,54.0,51.4,29.77,North,0,0.0,0.0,91,0.00,,,0.01,WUHU216HW,2013-01-25 01:22:00,
2013-01-24 17:27:00,53.8,51.2,29.77,North,0,0.0,0.0,91,0.00,,,0.01,WUHU216HW,2013-01-25 01:27:00,
2013-01-24 17:32:00,53.8,51.2,29.77,North,0,0.0,0.0,91,0.00,,,0.01,WUHU216HW,2013-01-25 01:32:00,
2013-01-24 17:37:00,53.8,51.5,29.78,North,0,0.0,0.0,92,0.00,,,0.01,WUHU216HW,2013-01-25 01:37:00,
2013-01-24 17:42:00,53.8,51.5,29.78,North,0,0.0,0.0,92,0.00,,,0.01,WUHU216HW,2013-01-25 01:42:00,
2013-01-24 17:47:00,54.0,51.4,29.78,North,0,0.0,0.0,91,0.00,,,0.01,WUHU216HW,2013-01-25 01:47:00,
2013-01-24 17:53:00,53.8,51.2,29.78,North,0,0.0,0.0,91,0.00,,,0.01,WUHU216HW,2013-01-25 01:53:00,
2013-01-24 17:58:00,53.6,51.0,29.78,North,0,0.0,0.0,91,0.00,,,0.01,WUHU216HW,2013-01-25 01:58:00,
2013-01-24 18:03:00,53.6,51.0,29.78,North,0,0.0,0.0,91,0.00,,,0.01,WUHU216HW,2013-01-25 02:03:00,
2013-01-24 18:08:00,53.6,51.0,29.79,North,0,0.0,0.0,91,0.00,,,0.01,WUHU216HW,2013-01-25 02:08:00,
2013-01-24 18:13:00,53.6,51.0,29.79,North,0,0.0,0.0,91,0.00,,,0.01,WUHU216HW,2013-01-25 02:13:00,
2013-01-24 18:18:00,53.6,51.0,29.79,North,0,0.0,0.0,91,0.00,,,0.01,WUHU216HW,2013-01-25 02:18:00,
2013-01-24 18:23:00,53.5,50.9,29.79,North,0,0.0,0.0,91,0.00,,,0.01,WUHU216HW,2013-01-25 02:23:00,
2013-01-24 18:28:00,53.5,51.1,29.78,North,0,0.0,0.0,92,0.00,,,0.01,WUHU216HW,2013-01-25 02:28:00,
2013-01-24 18:33:00,53.5,51.1,29.79,North,0,0.0,0.0,92,0.00,,,0.01,WUHU216HW,2013-01-25 02:33:00,
2013-01-24 18:38:00,53.5,51.1,29.79,North,0,0.0,0.0,92,0.00,,,0.01,WUHU216HW,2013-01-25 02:38:00,
2013-01-24 18:43:00,53.5,51.1,29.79,North,0,0.0,0.0,92,0.00,,,0.01,WUHU216HW,2013-01-25 02:43:00,
2013-01-24 18:48:00,53.5,51.1,29.80,North,0,0.0,0.0,92,0.00,,,0.01,WUHU216HW,2013-01-25 02:48:00,
2013-01-24 18:53:00,53.5,51.1,29.80,North,0,0.0,0.0,92,0.00,,,0.01,WUHU216HW,2013-01-25 02:53:00,
2013-01-24 18:59:00,53.5,51.1,29.80,North,0,0.0,0.0,92,0.00,,,0.01,WUHU216HW,2013-01-25 02:59:00,
2013-01-24 19:04:00,53.5,51.1,29.80,North,0,0.0,0.0,92,0.00,,,0.01,WUHU216HW,2013-01-25 03:04:00,
2013-01-24 19:09:00,53.5,51.1,29.80,North,0,0.0,0.0,92,0.00,,,0.01,WUHU216HW,2013-01-25 03:09:00,
2013-01-24 19:14:00,53.3,50.9,29.80,North,0,0.0,0.0,92,0.00,,,0.01,WUHU216HW,2013-01-25 03:14:00,
2013-01-24 19:19:00,53.3,50.9,29.80,North,0,0.0,0.0,92,0.00,,,0.01,WUHU216HW,2013-01-25 03:19:00,
2013-01-24 19:24:00,53.1,50.8,29.80,North,0,0.0,0.0,92,0.00,,,0.01,WUHU216HW,2013-01-25 03:24:00,
2013-01-24 19:29:00,52.9,50.6,29.80,North,0,0.0,0.0,92,0.00,,,0.01,WUHU216HW,2013-01-25 03:29:00,
2013-01-24 19:34:00,52.9,50.6,29.80,North,0,0.0,0.0,92,0.00,,,0.01,WUHU216HW,2013-01-25 03:34:00,
2013-01-24 19:39:00,52.9,50.6,29.80,North,0,0.0,0.0,92,0.00,,,0.01,WUHU216HW,2013-01-25 03:39:00,
2013-01-24 19:44:00,52.9,50.6,29.80,North,0,0.0,0.0,92,0.00,,,0.01,WUHU216HW,2013-01-25 03:44:00,
2013-01-24 19:49:00,52.9,50.6,29.80,North,0,0.0,0.0,92,0.00,,,0.01,WUHU216HW,2013-01-25 03:49:00,
2013-01-24 19:54:00,52.9,50.6,29.80,North,0,0.0,0.0,92,0.00,,,0.01,WUHU216HW,2013-01-25 03:54:00,
2013-01-24 20:00:00,52.9,50.6,29.80,North,0,0.0,0.0,92,0.00,,,0.01,WUHU216HW,2013-01-25 04:00:00,
2013-01-24 20:05:00,52.9,50.6,29.80,North,0,0.0,0.0,92,0.00,,,0.01,WUHU216HW,2013-01-25 04:05:00,
2013-01-24 20:10:00,52.9,50.6,29.80,North,0,0.0,0.0,92,0.00,,,0.01,WUHU216HW,2013-01-25 04:10:00,
2013-01-24 20:15:00,53.1,50.8,29.80,North,0,0.0,0.0,92,0.00,,,0.01,WUHU216HW,2013-01-25 04:15:00,
2013-01-24 20:20:00,53.1,50.8,29.81,North,0,0.0,0.0,92,0.00,,,0.01,WUHU216HW,2013-01-25 04:20:00,
2013-01-24 20:25:00,52.9,50.6,29.80,North,0,0.0,0.0,92,0.00,,,0.01,WUHU216HW,2013-01-25 04:25:00,
2013-01-24 20:30:00,52.9,50.6,29.80,North,0,0.0,0.0,92,0.00,,,0.01,WUHU216HW,2013-01-25 04:30:00,
2013-01-24 20:35:00,52.9,50.6,29.81,North,0,0.0,0.0,92,0.00,,,0.01,WUHU216HW,2013-01-25 04:35:00,
2013-01-24 20:40:00,52.9,50.6,29.81,North,0,0.0,0.0,92,0.00,,,0.01,WUHU216HW,2013-01-25 04:40:00,
2013-01-24 20:45:00,52.7,50.4,29.81,North,0,0.0,0.0,92,0.00,,,0.01,WUHU216HW,2013-01-25 04:45:00,
2013-01-24 20:50:00,52.7,50.4,29.81,North,0,0.0,0.0,92,0.00,,,0.01,WUHU216HW,2013-01-25 04:50:00,
2013-01-24 20:55:00,52.7,50.4,29.81,North,0,0.0,0.0,92,0.00,,,0.01,WUHU216HW,2013-01-25 04:55:00,
2013-01-24 21:01:00,52.7,50.4,29.81,North,0,0.0,0.0,92,0.00,,,0.01,WUHU216HW,2013-01-25 05:01:00,
2013-01-24 21:02:00,52.7,50.4,29.81,North,0,0.0,0.0,92,0.00,,,0.01,WUHU216HW,2013-01-25 05:02:00,
2013-01-24 21:03:00,52.7,50.4,29.81,North,0,0.0,0.0,92,0.00,,,0.01,WUHU216HW,2013-01-25 05:03:00,
2013-01-24 21:08:00,52.7,50.4,29.81,North,0,0.0,0.0,92,0.00,,,0.01,WUHU216HW,2013-01-25 05:08:00,
2013-01-24 21:13:00,52.9,50.6,29.81,North,0,0.0,0.0,92,0.00,,,0.01,WUHU216HW,2013-01-25 05:13:00,
2013-01-24 21:18:00,52.7,50.4,29.81,North,0,0.0,0.0,92,0.00,,,0.01,WUHU216HW,2013-01-25 05:18:00,
2013-01-24 21:23:00,52.9,51.0,29.81,North,0,0.0,0.0,93,0.00,,,0.01,WUHU216HW,2013-01-25 05:23:00,
2013-01-24 21:29:00,52.9,51.0,29.81,North,0,0.0,0.0,93,0.00,,,0.01,WUHU216HW,2013-01-25 05:29:00,
2013-01-24 21:34:00,53.1,51.1,29.81,North,0,0.0,0.0,93,0.00,,,0.01,WUHU216HW,2013-01-25 05:34:00,
2013-01-24 21:39:00,53.1,50.8,29.81,North,0,0.0,0.0,92,0.00,,,0.01,WUHU216HW,2013-01-25 05:39:00,
2013-01-24 21:44:00,52.9,50.6,29.81,North,0,0.0,0.0,92,0.00,,,0.01,WUHU216HW,2013-01-25 05:44:00,
2013-01-24 21:49:00,52.9,50.6,29.81,North,0,0.0,0.0,92,0.00,,,0.01,WUHU216HW,2013-01-25 05:49:00,
2013-01-24 21:54:00,52.9,50.6,29.81,North,0,0.0,0.0,92,0.00,,,0.01,WUHU216HW,2013-01-25 05:54:00,
2013-01-24 21:59:00,52.9,50.6,29.81,North,0,0.0,0.0,92,0.00,,,0.01,WUHU216HW,2013-01-25 05:59:00,
2013-01-24 22:04:00,52.9,50.6,29.81,North,0,0.0,0.0,92,0.00,,,0.01,WUHU216HW,2013-01-25 06:04:00,
2013-01-24 22:09:00,52.9,50.6,29.81,North,0,0.0,0.0,92,0.00,,,0.01,WUHU216HW,2013-01-25 06:09:00,
2013-01-24 22:14:00,52.9,50.6,29.81,North,0,0.0,0.0,92,0.00,,,0.01,WUHU216HW,2013-01-25 06:14:00,
2013-01-24 22:19:00,53.1,51.1,29.81,North,0,0.0,0.0,93,0.00,,,0.01,WUHU216HW,2013-01-25 06:19:00,
2013-01-24 22:25:00,53.1,51.1,29.81,North,0,0.0,0.0,93,0.00,,,0.01,WUHU216HW,2013-01-25 06:25:00,
2013-01-24 22:30:00,53.1,51.1,29.82,North,0,0.0,0.0,93,0.00,,,0.01,WUHU216HW,2013-01-25 06:30:00,
2013-01-24 22:35:00,53.3,51.3,29.82,North,0,0.0,0.0,93,0.00,,,0.01,WUHU216HW,2013-01-25 06:35:00,
2013-01-24 22:40:00,53.3,51.3,29.82,North,0,0.0,0.0,93,0.00,,,0.01,WUHU216HW,2013-01-25 06:40:00,
2013-01-24 22:45:00,53.5,51.5,29.82,North,0,0.0,0.0,93,0.00,,,0.01,WUHU216HW,2013-01-25 06:45:00,
2013-01-24 22:50:00,53.6,51.7,29.81,North,0,0.0,0.0,93,0.00,,,0.01,WUHU216HW,2013-01-25 06:50:00,
2013-01-24 22:55:00,53.6,51.7,29.82,North,0,0.0,0.0,93,0.00,,,0.01,WUHU216HW,2013-01-25 06:55:00,
2013-01-24 23:00:00,53.6,51.7,29.82,North,0,0.0,0.0,93,0.00,,,0.01,WUHU216HW,2013-01-25 07:00:00,
2013-01-24 23:05:00,53.5,51.1,29.82,North,0,0.0,0.0,92,0.00,,,0.01,WUHU216HW,2013-01-25 07:05:00,
2013-01-24 23:10:00,53.5,51.5,29.82,North,0,0.0,0.0,93,0.00,,,0.01,WUHU216HW,2013-01-25 07:10:00,
2013-01-24 23:15:00,53.5,51.5,29.82,North,0,0.0,0.0,93,0.00,,,0.01,WUHU216HW,2013-01-25 07:15:00,
2013-01-24 23:21:00,53.5,51.5,29.82,North,0,0.0,0.0,93,0.00,,,0.01,WUHU216HW,2013-01-25 07:21:00,
2013-01-24 23:26:00,53.5,51.5,29.82,North,0,0.0,0.0,93,0.00,,,0.01,WUHU216HW,2013-01-25 07:26:00,
2013-01-24 23:31:00,53.5,51.5,29.82,North,0,0.0,0.0,93,0.00,,,0.01,WUHU216HW,2013-01-25 07:31:00,
2013-01-24 23:36:00,53.5,51.5,29.83,North,0,0.0,0.0,93,0.00,,,0.01,WUHU216HW,2013-01-25 07:36:00,
2013-01-24 23:41:00,53.5,51.5,29.82,North,0,0.0,0.0,93,0.00,,,0.01,WUHU216HW,2013-01-25 07:41:00,
2013-01-24 23:46:00,53.5,51.5,29.82,North,0,0.0,0.0,93,0.00,,,0.01,WUHU216HW,2013-01-25 07:46:00,
2013-01-24 23:51:00,53.5,51.5,29.82,North,0,0.0,0.0,93,0.00,,,0.01,WUHU216HW,2013-01-25 07:51:00,
2013-01-24 23:56:00,53.5,51.5,29.82,North,0,0.0,0.0,93,0.00,,,0.01,WUHU216HW,2013-01-25 07:56:00,